Total_Precipitation_Accumulation
1.55 1.66 1.59 1.45 1.43 1.51 1.77 1.96 2.06 1.83 1.60 1.43 1.31 1.06 1.07 1.02 0.98 0.90 0.89 0.71 0.55 0.53 0.52 0.50 0.54 0.64 0.73 0.83 0.96 1.12 1.24 1.31 1.45 1.61 1.73 1.81 1.86 1.89
1.60 1.69 1.73 1.64 1.64 1.67 1.80 1.96 2.09 2.12 1.79 1.51 1.49 1.23 1.11 0.92 0.89 0.85 0.78 0.72 0.56 0.46 0.46 0.44 0.43 0.47 0.51 0.58 0.66 0.74 0.84 0.95 1.03 1.13 1.23 1.33 1.39 1.49
1.33 1.44 1.59 1.73 1.74 1.75 1.81 1.86 1.98 2.14 1.89 1.80 1.89 1.74 1.50 1.25 1.06 0.92 0.77 0.75 0.65 0.52 0.43 0.43 0.43 0.44 0.46 0.51 0.53 0.59 0.66 0.73 0.81 0.91 1.01 1.06 1.07 1.13
1.18 1.23 1.23 1.31 1.42 1.50 1.60 1.74 1.86 2.07 2.00 2.02 2.19 2.16 1.89 1.54 1.36 1.19 0.91 0.78 0.71 0.63 0.48 0.39 0.41 0.44 0.45 0.48 0.51 0.54 0.57 0.61 0.68 0.75 0.82 0.94 1.04 1.08
0.97 0.98 0.93 0.97 1.05 1.17 1.26 1.42 1.61 1.88 2.01 2.13 2.33 2.27 2.04 1.78 1.62 1.35 1.15 1.06 0.84 0.75 0.62 0.46 0.39 0.41 0.45 0.47 0.52 0.58 0.59 0.58 0.60 0.66 0.74 0.82 0.93 1.04
0.74 0.70 0.71 0.81 0.89 0.99 1.12 1.19 1.32 1.54 1.72 1.93 2.20 2.24 2.10 1.99 1.88 1.57 1.37 1.28 1.10 0.89 0.81 0.60 0.49 0.44 0.44 0.47 0.51 0.58 0.67 0.69 0.70 0.72 0.76 0.82 0.85 0.89
0.65 0.56 0.53 0.60 0.67 0.76 0.82 0.99 1.14 1.33 1.46 1.66 1.95 2.19 2.05 1.94 1.84 1.73 1.57 1.51 1.41 1.21 1.15 0.89 0.71 0.58 0.46 0.45 0.49 0.58 0.74 0.85 0.86 0.87 0.89 0.93 0.97 1.00
0.57 0.49 0.43 0.43 0.49 0.56 0.66 0.75 0.87 1.03 1.21 1.48 1.72 1.91 1.83 1.77 1.86 1.90 1.85 1.66 1.60 1.49 1.54 1.45 1.22 1.05 0.79 0.55 0.46 0.50 0.64 0.86 1.00 1.01 1.05 1.07 1.09 1.12
0.45 0.49 0.41 0.36 0.43 0.49 0.54 0.53 0.63 0.75 0.89 1.15 1.38 1.56 1.72 1.71 1.89 2.03 2.11 2.01 1.89 1.79 1.89 1.98 1.86 1.69 1.12 0.87 0.77 0.62 0.59 0.67 0.83 0.94 0.99 1.09 1.14 1.17
0.39 0.41 0.45 0.48 0.46 0.45 0.53 0.56 0.52 0.55 0.62 0.69 0.91 1.22 1.72 1.96 1.92 2.01 2.21 2.25 2.14 2.08 2.11 2.28 2.14 2.05 1.63 1.17 0.90 0.65 0.57 0.57 0.65 0.77 0.87 0.96 1.09 1.23
0.39 0.37 0.37 0.45 0.45 0.36 0.43 0.50 0.51 0.52 0.53 0.61 0.75 1.01 1.28 1.61 1.79 1.86 1.97 2.12 2.28 2.27 2.20 2.30 2.27 2.16 2.16 1.85 1.27 0.87 0.60 0.52 0.56 0.64 0.73 0.83 0.96 1.11
0.46 0.43 0.33 0.30 0.31 0.29 0.40 0.48 0.49 0.49 0.52 0.58 0.63 0.76 0.96 1.15 1.21 1.23 1.34 1.45 1.67 1.86 1.82 1.96 2.22 2.26 2.46 2.47 1.98 1.38 0.98 0.75 0.62 0.59 0.66 0.73 0.85 0.85
0.49 0.48 0.44 0.29 0.25 0.25 0.33 0.44 0.48 0.53 0.59 0.65 0.71 0.76 0.94 1.10 1.14 1.12 1.17 1.20 1.21 1.22 1.20 1.30 1.57 1.76 1.99 2.30 2.26 1.84 1.45 1.21 0.95 0.76 0.71 0.76 0.83 0.84
0.60 0.57 0.53 0.34 0.29 0.29 0.30 0.35 0.40 0.42 0.52 0.61 0.68 0.72 0.77 0.90 1.00 1.05 1.09 1.13 1.14 1.08 1.00 1.08 1.24 1.28 1.26 1.40 1.61 1.60 1.46 1.38 1.35 1.26 1.08 1.04 0.99 1.01
0.66 0.62 0.50 0.40 0.36 0.35 0.32 0.36 0.40 0.43 0.51 0.58 0.62 0.65 0.67 0.77 0.93 1.05 1.09 1.12 1.16 1.12 1.01 0.91 0.95 1.09 1.20 1.13 1.09 1.14 1.20 1.27 1.39 1.52 1.51 1.37 1.22 1.14
0.69 0.67 0.55 0.46 0.44 0.45 0.40 0.38 0.42 0.49 0.54 0.55 0.61 0.67 0.69 0.78 0.89 0.98 1.06 1.06 1.06 1.08 1.06 0.97 0.91 0.93 1.01 1.07 1.01 0.93 0.96 1.07 1.16 1.34 1.56 1.66 1.62 1.49
0.80 0.84 0.83 0.75 0.65 0.63 0.60 0.59 0.60 0.61 0.59 0.62 0.67 0.73 0.72 0.75 0.85 0.92 1.02 1.05 0.92 0.87 0.92 0.99 1.02 1.00 0.93 0.98 1.03 0.96 0.90 0.91 0.99 1.09 1.20 1.30 1.34 1.34
0.79 0.89 0.95 0.95 0.87 0.83 0.80 0.77 0.75 0.73 0.70 0.71 0.74 0.75 0.75 0.73 0.82 0.90 0.96 0.99 0.93 0.82 0.83 0.91 0.98 1.07 1.11 1.09 0.94 0.88 0.87 0.85 0.89 0.98 1.01 1.01 0.97 0.88
0.75 0.86 0.89 0.91 0.91 0.88 0.88 0.82 0.78 0.78 0.79 0.77 0.74 0.75 0.77 0.76 0.83 0.89 0.90 0.92 0.94 0.90 0.87 0.93 0.95 0.93 0.95 0.96 0.90 0.77 0.78 0.80 0.89 0.94 0.94 0.88 0.82 0.75
0.75 0.87 0.90 0.90 0.88 0.87 0.87 0.86 0.82 0.87 0.91 0.85 0.80 0.79 0.78 0.77 0.83 0.85 0.87 0.86 0.88 0.91 0.93 0.89 0.89 0.88 0.83 0.85 0.89 0.88 0.76 0.74 0.77 0.82 0.83 0.83 0.81 0.76
0.83 0.93 0.97 0.91 0.86 0.86 0.84 0.84 0.84 0.87 0.93 0.92 0.84 0.81 0.83 0.82 0.82 0.82 0.88 0.87 0.82 0.81 0.82 0.74 0.73 0.86 0.98 1.05 0.99 0.99 1.00 0.90 0.86 0.80 0.82 0.84 0.86 0.82
0.81 0.90 0.91 0.85 0.81 0.82 0.82 0.83 0.85 0.90 0.95 0.93 0.84 0.78 0.81 0.83 0.79 0.81 0.84 0.82 0.76 0.74 0.76 0.79 0.87 0.94 0.98 1.02 0.95 0.95 1.09 1.11 1.06 0.98 0.95 0.88 0.78 0.73
0.82 0.86 0.81 0.75 0.73 0.74 0.75 0.78 0.83 0.89 0.92 0.89 0.84 0.76 0.76 0.80 0.77 0.79 0.81 0.80 0.81 0.84 0.88 0.93 0.99 1.01 0.97 0.93 0.94 0.96 1.02 1.09 1.10 1.06 1.01 0.92 0.76 0.67